SWR156 LSZH-EDDH

Flight info

Callsign SWR156
Flight time 1h 15m
Altitude 30000
Route DEGES Z1 ETAGO Z3 LBU/N0437F300 N851 RIMKI/N0399F240 N851 OSBIT P605 NOLGO NOLGO6A
Aircraft A321/M-SDE3FGHIRWY/LB1

Departure

Time 2026-05-07 13:03
Airport Zürich Airport (LSZH)

Arrival

Time 2026-05-07 14:18
Airport Hamburg Helmut Schmidt Airport (EDDH)
Time Latitude Longitude Altitude Speed Heading
2026-05-07 12:29 47.45351 8.55701 1407 ft 0 kts
2026-05-07 12:53 47.45347 8.55700 1408 ft 3 kts
2026-05-07 12:54 47.45321 8.55695 1407 ft 4 kts
2026-05-07 12:54 47.45299 8.55699 1407 ft 4 kts 344°
2026-05-07 12:54 47.45275 8.55713 1407 ft 4 kts 319°
2026-05-07 12:54 47.45264 8.55737 1408 ft 1 kts 276°
2026-05-07 12:57 47.45265 8.55726 1407 ft 4 kts 276°
2026-05-07 12:58 47.45272 8.55638 1407 ft 12 kts 276°
2026-05-07 12:58 47.45341 8.55533 1412 ft 18 kts 335°
2026-05-07 12:58 47.45478 8.55438 1409 ft 24 kts 334°
2026-05-07 12:58 47.45620 8.55341 1406 ft 16 kts 340°
2026-05-07 12:59 47.45669 8.55423 1402 ft 11 kts 96°
2026-05-07 12:59 47.45662 8.55526 1403 ft 11 kts 96°
2026-05-07 12:59 47.45652 8.55666 1410 ft 16 kts 96°
2026-05-07 12:59 47.45639 8.55854 1411 ft 21 kts 95°
2026-05-07 13:00 47.45624 8.56059 1411 ft 19 kts 96°
2026-05-07 13:00 47.45611 8.56243 1413 ft 17 kts 96°
2026-05-07 13:00 47.45598 8.56443 1416 ft 23 kts 95°
2026-05-07 13:00 47.45582 8.56697 1420 ft 25 kts 96°
2026-05-07 13:01 47.45567 8.56892 1420 ft 18 kts 96°
2026-05-07 13:01 47.45603 8.57018 1424 ft 11 kts
2026-05-07 13:01 47.45666 8.57008 1425 ft 8 kts 307°
2026-05-07 13:01 47.45667 8.56962 1424 ft 0 kts 275°
2026-05-07 13:02 47.45687 8.56640 1417 ft 70 kts 276°
2026-05-07 13:02 47.45763 8.55609 1411 ft 129 kts 276°
2026-05-07 13:02 47.45874 8.54074 1554 ft 158 kts 276°
2026-05-07 13:03 47.45987 8.52506 2251 ft 152 kts 276°
2026-05-07 13:03 47.46094 8.50948 2868 ft 153 kts 276°
2026-05-07 13:03 47.46207 8.49397 3463 ft 151 kts 276°
2026-05-07 13:03 47.46243 8.47835 3956 ft 153 kts 253°
2026-05-07 13:04 47.45691 8.46532 4462 ft 152 kts 225°
2026-05-07 13:04 47.44953 8.45329 4768 ft 165 kts 236°
2026-05-07 13:04 47.44358 8.43816 5095 ft 175 kts 243°
2026-05-07 13:04 47.43784 8.42123 5276 ft 195 kts 244°
2026-05-07 13:05 47.43162 8.40230 5407 ft 215 kts 244°
2026-05-07 13:05 47.42398 8.38266 5712 ft 226 kts 229°
2026-05-07 13:05 47.41062 8.37057 6195 ft 231 kts 193°
2026-05-07 13:05 47.39466 8.37187 6768 ft 235 kts 159°
2026-05-07 13:06 47.38080 8.38551 7087 ft 252 kts 132°
2026-05-07 13:06 47.37265 8.40937 7314 ft 275 kts 98°
2026-05-07 13:06 47.37466 8.43749 7898 ft 282 kts 67°
2026-05-07 13:06 47.38305 8.46390 8598 ft 287 kts 66°
2026-05-07 13:07 47.39018 8.49120 9316 ft 290 kts 70°
2026-05-07 13:07 47.39664 8.52000 10047 ft 294 kts 72°
2026-05-07 13:07 47.40289 8.54903 10442 ft 310 kts 72°
2026-05-07 13:07 47.40978 8.58046 10603 ft 334 kts 71°
2026-05-07 13:08 47.41737 8.61401 10813 ft 353 kts 71°
2026-05-07 13:08 47.42548 8.64868 11379 ft 360 kts 70°
2026-05-07 13:08 47.43382 8.68370 12041 ft 364 kts 70°
2026-05-07 13:08 47.44236 8.71916 12702 ft 368 kts 70°
2026-05-07 13:09 47.45099 8.75492 13362 ft 371 kts 70°
2026-05-07 13:09 47.45880 8.79139 14006 ft 375 kts 77°
2026-05-07 13:09 47.46217 8.82974 14635 ft 378 kts 89°
2026-05-07 13:09 47.46048 8.86857 15242 ft 381 kts 100°
2026-05-07 13:10 47.45495 8.90705 15852 ft 384 kts 103°
2026-05-07 13:10 47.44926 8.94573 16439 ft 387 kts 102°
2026-05-07 13:10 47.44364 8.98478 17009 ft 390 kts 102°
2026-05-07 13:10 47.43805 9.02413 17555 ft 393 kts 102°
2026-05-07 13:11 47.43242 9.06390 18099 ft 396 kts 102°
2026-05-07 13:11 47.42674 9.10381 18626 ft 399 kts 102°
2026-05-07 13:11 47.42198 9.14388 19123 ft 403 kts 95°
2026-05-07 13:11 47.42186 9.18537 19614 ft 406 kts 84°
2026-05-07 13:12 47.42706 9.22648 20094 ft 409 kts 73°
2026-05-07 13:12 47.43748 9.26565 20569 ft 411 kts 62°
2026-05-07 13:12 47.45166 9.30259 21043 ft 414 kts 59°
2026-05-07 13:12 47.46648 9.33917 21508 ft 416 kts 54°
2026-05-07 13:13 47.48477 9.37241 21960 ft 418 kts 44°
2026-05-07 13:13 47.50682 9.40048 22405 ft 419 kts 34°
2026-05-07 13:13 47.53164 9.42208 22828 ft 420 kts 24°
2026-05-07 13:13 47.55901 9.43734 23248 ft 422 kts 17°
2026-05-07 13:14 47.58738 9.44846 23667 ft 423 kts
2026-05-07 13:14 47.61666 9.45297 24077 ft 423 kts
2026-05-07 13:14 47.64654 9.45438 24486 ft 425 kts
2026-05-07 13:14 47.67584 9.45589 24878 ft 428 kts
2026-05-07 13:15 47.70570 9.45754 25256 ft 430 kts
2026-05-07 13:15 47.73567 9.45920 25611 ft 432 kts
2026-05-07 13:15 47.76584 9.46089 25981 ft 435 kts
2026-05-07 13:15 47.79609 9.46255 26338 ft 437 kts
2026-05-07 13:16 47.82658 9.46371 26698 ft 439 kts 359°
2026-05-07 13:16 47.85717 9.46395 27049 ft 441 kts 358°
2026-05-07 13:16 47.88797 9.46359 27391 ft 443 kts 358°
2026-05-07 13:16 47.91885 9.46303 27712 ft 445 kts 358°
2026-05-07 13:17 47.94984 9.46253 28029 ft 447 kts 358°
2026-05-07 13:17 47.98102 9.46220 28337 ft 449 kts 358°
2026-05-07 13:17 48.01229 9.46203 28646 ft 451 kts 359°
2026-05-07 13:17 48.04375 9.46199 28973 ft 452 kts 359°
2026-05-07 13:18 48.07528 9.46202 29273 ft 454 kts 359°
2026-05-07 13:18 48.10690 9.46205 29580 ft 455 kts 359°
2026-05-07 13:18 48.13853 9.46204 29929 ft 454 kts 359°
2026-05-07 13:18 48.16967 9.46198 30023 ft 449 kts 359°
2026-05-07 13:19 48.23092 9.46193 30035 ft 436 kts 359°
2026-05-07 13:19 48.29157 9.46207 30034 ft 435 kts 359°
2026-05-07 13:20 48.35206 9.46217 30034 ft 435 kts 359°
2026-05-07 13:20 48.41254 9.46213 30036 ft 435 kts 359°
2026-05-07 13:21 48.47298 9.46211 30031 ft 434 kts 359°
2026-05-07 13:21 48.53347 9.46221 30034 ft 434 kts 359°
2026-05-07 13:22 48.59389 9.46188 30027 ft 434 kts 359°
2026-05-07 13:22 48.65424 9.46096 30030 ft 434 kts 358°
2026-05-07 13:23 48.71447 9.45754 30022 ft 432 kts 351°
2026-05-07 13:23 48.77146 9.43180 30017 ft 431 kts 336°
2026-05-07 13:24 48.82657 9.39625 30027 ft 431 kts 336°
2026-05-07 13:24 48.88181 9.36050 30023 ft 431 kts 337°
2026-05-07 13:25 48.93983 9.33833 30016 ft 432 kts 355°
2026-05-07 13:25 48.99995 9.33335 30017 ft 433 kts 356°
2026-05-07 13:26 49.06005 9.32856 30022 ft 432 kts 356°
2026-05-07 13:26 49.12020 9.32366 30022 ft 433 kts 356°
2026-05-07 13:27 49.18031 9.31882 30024 ft 433 kts 356°
2026-05-07 13:27 49.24045 9.31410 30023 ft 433 kts 356°
2026-05-07 13:28 49.30057 9.30947 30024 ft 433 kts 357°
2026-05-07 13:28 49.36081 9.30648 30025 ft 433 kts
2026-05-07 13:29 49.42080 9.31520 30028 ft 433 kts
2026-05-07 13:29 49.48082 9.32403 30032 ft 433 kts
2026-05-07 13:30 49.54052 9.33273 30036 ft 433 kts
2026-05-07 13:30 49.60087 9.34165 30041 ft 433 kts
2026-05-07 13:31 49.65074 9.34921 30037 ft 433 kts
2026-05-07 13:31 49.72024 9.36291 30039 ft 433 kts 15°
2026-05-07 13:32 49.76683 9.39248 30031 ft 433 kts 30°
2026-05-07 13:32 49.81468 9.44901 30036 ft 433 kts 40°
2026-05-07 13:33 49.86088 9.50912 30035 ft 433 kts 40°
2026-05-07 13:33 49.90676 9.56884 30031 ft 433 kts 40°
2026-05-07 13:34 49.97589 9.65918 30035 ft 433 kts 40°
2026-05-07 13:35 50.02193 9.71952 30034 ft 433 kts 38°
2026-05-07 13:35 50.04709 9.74510 30026 ft 433 kts 27°
2026-05-07 13:35 50.07472 9.76336 30031 ft 433 kts 18°
2026-05-07 13:36 50.13406 9.77664 30026 ft 433 kts 358°
2026-05-07 13:36 50.19421 9.77060 30028 ft 433 kts 356°
2026-05-07 13:37 50.25443 9.76445 30030 ft 434 kts 356°
2026-05-07 13:37 50.31464 9.75848 30024 ft 434 kts 356°
2026-05-07 13:38 50.37498 9.75247 30025 ft 434 kts 356°
2026-05-07 13:38 50.43527 9.74636 30034 ft 434 kts 356°
2026-05-07 13:39 50.49557 9.74026 30035 ft 434 kts 356°
2026-05-07 13:39 50.55590 9.73413 30036 ft 434 kts 356°
2026-05-07 13:40 50.61588 9.72803 30031 ft 435 kts 356°
2026-05-07 13:40 50.67622 9.72181 30036 ft 435 kts 356°
2026-05-07 13:41 50.73662 9.71549 30037 ft 435 kts 356°
2026-05-07 13:41 50.79699 9.70926 30043 ft 435 kts 356°
2026-05-07 13:42 50.85737 9.70300 30038 ft 435 kts 356°
2026-05-07 13:42 50.91787 9.69835 30044 ft 435 kts 359°
2026-05-07 13:43 50.97849 9.69706 30038 ft 436 kts 360°
2026-05-07 13:43 51.03907 9.69610 30041 ft 436 kts 359°
2026-05-07 13:44 51.09972 9.69459 30033 ft 436 kts 359°
2026-05-07 13:44 51.16042 9.69256 30038 ft 436 kts 359°
2026-05-07 13:45 51.22100 9.69351 30033 ft 436 kts
2026-05-07 13:45 51.28142 9.70334 30040 ft 436 kts
2026-05-07 13:46 51.34184 9.71326 30038 ft 437 kts
2026-05-07 13:46 51.40237 9.72306 30042 ft 437 kts
2026-05-07 13:47 51.46249 9.73288 30043 ft 437 kts
2026-05-07 13:47 51.52294 9.74343 30042 ft 437 kts
2026-05-07 13:48 51.58342 9.75508 30044 ft 437 kts
2026-05-07 13:48 51.64391 9.76689 30043 ft 438 kts
2026-05-07 13:49 51.70446 9.77843 30046 ft 438 kts
2026-05-07 13:49 51.76505 9.78999 30047 ft 438 kts
2026-05-07 13:50 51.82567 9.80150 30049 ft 438 kts
2026-05-07 13:50 51.88623 9.81313 30052 ft 438 kts
2026-05-07 13:51 51.94681 9.82483 30054 ft 438 kts
2026-05-07 13:51 52.00738 9.83663 30051 ft 438 kts
2026-05-07 13:52 52.06789 9.84840 30056 ft 438 kts
2026-05-07 13:52 52.12851 9.86019 30060 ft 439 kts
2026-05-07 13:53 52.18918 9.87205 30045 ft 440 kts
2026-05-07 13:53 52.21957 9.87800 29796 ft 440 kts
2026-05-07 13:53 52.24989 9.88467 29542 ft 440 kts 11°
2026-05-07 13:53 52.27919 9.89663 29300 ft 440 kts 15°
2026-05-07 13:54 52.30874 9.90975 29048 ft 440 kts 15°
2026-05-07 13:54 52.33835 9.92284 28802 ft 441 kts 15°
2026-05-07 13:54 52.36800 9.93584 28552 ft 442 kts 15°
2026-05-07 13:54 52.39770 9.94880 28303 ft 442 kts 15°
2026-05-07 13:55 52.42737 9.96177 28052 ft 441 kts 15°
2026-05-07 13:55 52.45694 9.97476 27802 ft 439 kts 15°
2026-05-07 13:55 52.48642 9.98779 27552 ft 438 kts 15°
2026-05-07 13:55 52.51575 10.00080 27302 ft 436 kts 15°
2026-05-07 13:56 52.54492 10.01377 26822 ft 432 kts 15°
2026-05-07 13:56 52.57380 10.02663 26238 ft 429 kts 15°
2026-05-07 13:56 52.60246 10.03944 25661 ft 425 kts 15°
2026-05-07 13:56 52.63088 10.05214 25089 ft 422 kts 15°
2026-05-07 13:57 52.65908 10.06475 24525 ft 418 kts 15°
2026-05-07 13:57 52.68706 10.07729 23967 ft 415 kts 15°
2026-05-07 13:57 52.71475 10.08974 23428 ft 411 kts 15°
2026-05-07 13:57 52.74214 10.10210 22895 ft 406 kts 15°
2026-05-07 13:58 52.76937 10.11355 22414 ft 401 kts 10°
2026-05-07 13:58 52.79685 10.11852 21929 ft 395 kts
2026-05-07 13:58 52.82410 10.11924 21480 ft 389 kts
2026-05-07 13:58 52.85098 10.12004 21034 ft 384 kts
2026-05-07 13:59 52.87720 10.12091 20605 ft 379 kts
2026-05-07 13:59 52.90342 10.12180 20168 ft 375 kts
2026-05-07 13:59 52.92936 10.12265 19737 ft 370 kts
2026-05-07 13:59 52.95496 10.12346 19311 ft 366 kts
2026-05-07 14:00 52.98028 10.12426 18885 ft 362 kts
2026-05-07 14:00 53.00544 10.12511 18445 ft 359 kts
2026-05-07 14:00 53.03034 10.12597 18010 ft 357 kts
2026-05-07 14:00 53.05509 10.12684 17568 ft 355 kts
2026-05-07 14:01 53.07973 10.12769 17126 ft 352 kts
2026-05-07 14:01 53.10385 10.12854 16963 ft 341 kts
2026-05-07 14:01 53.12713 10.12938 16812 ft 330 kts
2026-05-07 14:01 53.14985 10.13016 16498 ft 324 kts
2026-05-07 14:02 53.17224 10.13091 15934 ft 320 kts
2026-05-07 14:02 53.19441 10.13165 15354 ft 317 kts
2026-05-07 14:02 53.21637 10.13237 14780 ft 314 kts
2026-05-07 14:02 53.23809 10.13310 14246 ft 310 kts
2026-05-07 14:03 53.25945 10.13381 13830 ft 302 kts
2026-05-07 14:03 53.28007 10.13451 13497 ft 292 kts
2026-05-07 14:03 53.30020 10.13518 13018 ft 288 kts
2026-05-07 14:03 53.32011 10.13586 12510 ft 285 kts
2026-05-07 14:04 53.33963 10.13653 12005 ft 283 kts
2026-05-07 14:04 53.35946 10.13710 11486 ft 280 kts 359°
2026-05-07 14:04 53.37867 10.13315 10965 ft 277 kts 346°
2026-05-07 14:04 53.39674 10.12238 10440 ft 275 kts 334°
2026-05-07 14:05 53.41275 10.10574 9899 ft 274 kts 322°
2026-05-07 14:05 53.42662 10.08340 9348 ft 273 kts 312°
2026-05-07 14:05 53.43912 10.06006 8807 ft 272 kts 313°
2026-05-07 14:05 53.45181 10.03654 8268 ft 271 kts 313°
2026-05-07 14:06 53.46420 10.01356 7981 ft 259 kts 313°
2026-05-07 14:06 53.47612 9.99144 7588 ft 253 kts 313°
2026-05-07 14:06 53.48573 9.96704 7127 ft 252 kts 290°
2026-05-07 14:06 53.48824 9.93833 6667 ft 250 kts 264°
2026-05-07 14:07 53.48312 9.91074 6184 ft 248 kts 238°
2026-05-07 14:07 53.47245 9.88801 5814 ft 249 kts 229°
2026-05-07 14:07 53.46128 9.86580 5494 ft 248 kts 229°
2026-05-07 14:07 53.45018 9.84362 5190 ft 248 kts 229°
2026-05-07 14:08 53.43915 9.82152 4877 ft 246 kts 229°
2026-05-07 14:08 53.42820 9.79960 4573 ft 245 kts 229°
2026-05-07 14:08 53.41728 9.77767 4273 ft 244 kts 230°
2026-05-07 14:08 53.40647 9.75607 4049 ft 240 kts 229°
2026-05-07 14:09 53.39572 9.73463 4004 ft 241 kts 229°
2026-05-07 14:09 53.38487 9.71294 4000 ft 243 kts 229°
2026-05-07 14:09 53.37415 9.69149 4013 ft 243 kts 231°
2026-05-07 14:09 53.36612 9.66684 3869 ft 243 kts 258°
2026-05-07 14:10 53.36668 9.63907 3665 ft 239 kts 291°
2026-05-07 14:10 53.37571 9.61643 3470 ft 235 kts 323°
2026-05-07 14:10 53.38941 9.60168 3277 ft 234 kts 333°
2026-05-07 14:10 53.40427 9.59117 3099 ft 231 kts 351°
2026-05-07 14:11 53.42016 9.59078 3000 ft 229 kts 13°
2026-05-07 14:11 53.43477 9.60050 3012 ft 227 kts 35°
2026-05-07 14:11 53.44622 9.61850 3017 ft 226 kts 51°
2026-05-07 14:11 53.45633 9.63875 3028 ft 225 kts 50°
2026-05-07 14:12 53.46596 9.65797 3005 ft 207 kts 51°
2026-05-07 14:12 53.47494 9.67589 3006 ft 196 kts 51°
2026-05-07 14:12 53.48364 9.69325 3018 ft 193 kts 51°
2026-05-07 14:12 53.49221 9.71042 3023 ft 191 kts 51°
2026-05-07 14:13 53.50050 9.72699 3009 ft 178 kts 51°
2026-05-07 14:13 53.50833 9.74264 3028 ft 173 kts 51°
2026-05-07 14:13 53.51598 9.75796 3027 ft 171 kts 51°
2026-05-07 14:13 53.52358 9.77320 2915 ft 170 kts 51°
2026-05-07 14:14 53.53114 9.78835 2728 ft 169 kts 51°
2026-05-07 14:14 53.53870 9.80353 2508 ft 169 kts 51°
2026-05-07 14:14 53.54626 9.81871 2296 ft 169 kts 51°
2026-05-07 14:14 53.55382 9.83390 2064 ft 169 kts 51°
2026-05-07 14:15 53.56106 9.84846 1861 ft 162 kts 50°
2026-05-07 14:15 53.56820 9.86284 1639 ft 159 kts 50°
2026-05-07 14:15 53.57519 9.87689 1425 ft 154 kts 50°
2026-05-07 14:15 53.58185 9.89028 1226 ft 144 kts 50°
2026-05-07 14:16 53.58819 9.90306 1039 ft 141 kts 50°
2026-05-07 14:16 53.59445 9.91567 848 ft 140 kts 51°
2026-05-07 14:16 53.60066 9.92821 668 ft 139 kts 51°
2026-05-07 14:16 53.60686 9.94070 485 ft 139 kts 51°
2026-05-07 14:17 53.61304 9.95319 303 ft 140 kts 51°
2026-05-07 14:17 53.61929 9.96584 118 ft 137 kts 51°
2026-05-07 14:17 53.62513 9.97769 41 ft 120 kts 50°
2026-05-07 14:17 53.62927 9.98600 41 ft 67 kts 50°
2026-05-07 14:18 53.63150 9.99057 46 ft 45 kts 50°
2026-05-07 14:18 53.63286 9.99352 47 ft 22 kts 67°
2026-05-07 14:18 53.63289 9.99532 47 ft 11 kts 94°
2026-05-07 14:18 53.63282 9.99604 48 ft 3 kts 99°
2026-05-07 14:19 53.63280 9.99626 48 ft 1 kts 99°
2026-05-07 14:19 53.63279 9.99631 48 ft 0 kts 99°
2026-05-07 14:19 53.63272 9.99688 48 ft 11 kts 109°
2026-05-07 14:19 53.63178 9.99799 46 ft 19 kts 152°
2026-05-07 14:20 53.63068 9.99895 45 ft 17 kts 152°
2026-05-07 14:20 53.62999 9.99956 48 ft 17 kts 153°
2026-05-07 14:20 53.62993 10.00103 47 ft 10 kts 31°
2026-05-07 14:20 53.63033 10.00145 48 ft 10 kts 33°
2026-05-07 14:21 53.63088 10.00203 48 ft 7 kts 29°
2026-05-07 14:21 53.63091 10.00206 48 ft 0 kts 30°
2026-05-07 14:21 53.63103 10.00212 48 ft 6 kts 14°
2026-05-07 14:21 53.63160 10.00246 48 ft 9 kts 58°
2026-05-07 14:22 53.63164 10.00288 48 ft 2 kts 86°
2026-05-07 14:22 53.63165 10.00303 48 ft 2 kts 86°
2026-05-07 14:22 53.63167 10.00349 48 ft 0 kts 86°
2026-05-07 14:23 53.63167 10.00358 48 ft 3 kts 86°
2026-05-07 14:23 53.63168 10.00366 48 ft 0 kts 86°